Flag for Germany Weather past 2 weeks in Ehingen (Donau), Baden-Württemberg, Germany

Now
57 °F

Passing clouds.


Feels Like: 57 °F
Forecast: 60 / 90 °F
Wind: 3 mph from East

Location: Laupheim Airport

Current Time: Aug 5, 2015 at 7:02:56 AM

Latest Report: Aug 5, 2015 at 6:20 AM


Visibility: N/A

Pressure: 30.12 "Hg (28.35 "Hg at 508m altitude)

Humidity: 94%

Dew point: 55 °F

Location of Ehingen (Donau)Location

Historic Weather in Ehingen (Donau) — Graph

°F

Ehingen (Donau) temperature yesterday

Maximum temperature yesterday: 84 °F (at 1:20 PM)
Minimum temperature yesterday: 57 °F (at 6:20 AM)
Average temperature yesterday: 70 °F

Past Weeks' High & Low Weather Summary

 TemperatureHumidityPressure
High91 °F (Jul 22, 3:20 PM)100% (Jul 23, 6:59 AM)30.15 "Hg (Jul 23, 6:59 AM)
Low46 °F (Jul 30, 4:20 AM)31% (Aug 3, 7:20 PM)29.77 "Hg (Jul 24, 6:20 PM)
Average66 °F67%29.98 "Hg
* Reported Jul 21 4:20 AM — Aug 5 4:20 AM, Ehingen (Donau), Weather by CustomWeather, © 2015

Note: Actual official high and low records may vary slightly from our data, if they occured in-between our weather recording intervals... More about our weather records

Advertising

Ehingen (Donau) weather history for previous 24 hours

 ConditionsComfort  
Time TempWeatherWind HumidityBarometerVisibility
4:20 AM
Wed, Aug 5
59 °FPassing clouds.No wind94%30.12 "HgN/A
3:20 AM61 °FPassing clouds.1 mph88%30.12 "HgN/A
2:20 AM63 °FPassing clouds.2 mph83%30.15 "HgN/A
1:20 AM64 °FPassing clouds.3 mph78%30.15 "HgN/A
12:20 AM63 °FPassing clouds.2 mph83%30.15 "HgN/A
11:20 PM
Tue, Aug 4
66 °FPassing clouds.5 mph78%30.12 "HgN/A
10:20 PM70 °FPassing clouds.5 mph69%30.12 "HgN/A
9:20 PM72 °FPartly sunny.6 mph61%30.09 "HgN/A
8:20 PM73 °FScattered clouds.7 mph57%30.07 "HgN/A
7:20 PM75 °FScattered clouds.7 mph57%30.07 "HgN/A
6:20 PM72 °FScattered clouds.7 mph65%30.07 "HgN/A
5:20 PM72 °FLight rain. Partly sunny.9 mph65%30.07 "HgN/A
4:20 PM73 °FPartly sunny.9 mph57%30.07 "HgN/A
3:20 PM79 °FBroken clouds.14 mph48%30.04 "HgN/A
2:20 PM82 °FBroken clouds.15 mph45%30.01 "HgN/A
1:20 PM84 °FPartly sunny.14 mph45%30.01 "HgN/A
12:20 PM81 °FPartly sunny.13 mph51%30.01 "HgN/A
11:20 AM77 °FPartly sunny.5 mph61%30.01 "HgN/A
10:20 AM73 °FPartly sunny.5 mph65%30.01 "HgN/A
9:20 AM70 °FPartly sunny.1 mph69%30.01 "HgN/A
8:20 AM63 °FPartly sunny.2 mph83%30.01 "HgN/A
7:20 AM61 °FPartly sunny.1 mph83%30.01 "HgN/A
Weather by CustomWeather, © 2015

See weather overviewHow to use our weather pages